Regional Weather Roundup
Issued by NWS New Orleans/Baton Rouge, LA

Home | Current Version | Previous Version | Graphics & Text | Print | Product List | Glossary On
Versions: 1 2 3 4 5 6 7 8 9 10 11 12 13 14 15 16 17 18 19 20 21 22 23 24 25 26 27 28 29 30 31 32 33 34 35 36 37 38 39 40 41 42 43 44 45 46 47 48 49 50
580
ASUS44 KLIX 250505
RWRLIX
NEW ORLEANS REGIONAL WEATHER ROUNDUP
NATIONAL WEATHER SERVICE NEW ORLEANS LA
1200 AM CDT SAT OCT 25 2014

NOTE: "FAIR" INDICATES FEW OR NO CLOUDS BELOW 12,000 FEET WITH NO
      SIGNIFICANT WEATHER AND/OR OBSTRUCTIONS TO VISIBILITY.
      SKY/WX - SKY CONDITION AND SIGNIFICANT WEATHER.
      TMP - AIR TEMPERATURE.     DP    - DEWPOINT TEMPERATURE.
      RH  - RELATIVE HUMIDITY.   PRES  - PRESSURE.
      HI  - HEAT INDEX.          WCI   - WIND CHILL INDEX.

*  THESE STATIONS ARE NOT NWS OR FAA STATIONS AND ARE NOT UNDER
   NWS QUALITY CONTROL.

LAZ038-040-048-061>063-065>067-069-250600-
SOUTHEAST LOUISIANA

CITY           SKY/WX    TMP DP  RH WIND       PRES   REMARKS
N.O. AUDUBON     N/A     60  58  92 MISG        N/A
N.O. INTL ARPT CLEAR     59  52  77 N5        30.10S
N.O. LAKEFRONT CLEAR     68  53  58 N12       30.10S
N.O. DOWNTOWN*   N/A     68  48  49 N6        30.10S
SLIDELL        CLEAR     50  47  89 CALM      30.09S
BATON ROUGE    CLEAR     56  48  74 CALM      30.12S
BOOTHVILLE     CLEAR     68  60  75 N5        30.08S
BELLE CHASSE   CLEAR     52  48  86 CALM      30.09S
BOGALUSA*        N/A     50  46  84 CALM      30.12S
NEW ROADS*       N/A     52  50  93 CALM      30.13S
GONZALES*        N/A     55  53  94 N3        30.12R
HAMMOND*       CLEAR     54  48  82 CALM      30.13S
HOUMA*         CLEAR     55  49  82 NW3       30.10S
PORT FOURCHON* CLEAR     66  55  68 N7        30.12S

$$

MSZ070-080>082-250600-
SOUTHERN MISSISSIPPI

CITY           SKY/WX    TMP DP  RH WIND       PRES   REMARKS
MCCOMB         CLEAR     53  46  77 CALM      30.12S
GULFPORT       CLEAR     54  49  83 NW5       30.07F
BILOXI         CLEAR     61  49  63 N5        30.07F
PASCAGOULA     CLEAR     47  46  97 CALM      30.07F

$$

COASTAL OBSERVATIONS
LAKE AND NEARSHORE STATIONS

STATION/POSITION TIME  TEMP    WIND        PRES    WAVE
                       AIR SEA DIR/SP/G            HT/PER
                 (UTC) (F)     (DEG/KT/KT) (MB)    (FT/S)
PASCAGOULA       0500   60     350/  6/  7 1017.7
WAVELAND YACHT   0500   65     350/  9/ 10 1017.9
GRAND ISLE       0500   69 72  350/  8/  9 1019.1
SOUTHWEST PASS   0500   71 80              1018.6
NEW CANAL        0500   70 70   10/ 10/ 12 1019.6
SHELL BEACH      0500   70 67  360/ 12/ 13 1018.6

OFFSHORE STATIONS

STATION/POSITION TIME  TEMP    WIND        PRES    WAVE
                       AIR SEA DIR/SP/G            HT/PER
                 (UTC) (F)     (DEG/KT/KT) (MB)    (FT/S)
64 S DAUPHIN ISL 0426   75 78   20/ 16/ 17 1018.1    2/ 3

$$




USA.gov is the U.S. government's official web portal to all federal, state and local government web resources and services.